Theta_e
331 332 334 336 336 337 338 338 337 338 338 338 338 338 338 338 337 336 338 340 340 339 340 339 337 336 337 338 338 340 341 342 342 342 342 342 342 342 342 343 342 341 341 341 340 340 341 341 341 339 339 338 337 337 337 337 338 337 336 335 332 332 333 335 334 334 330 328 331 330 332 335 335 333 332 334 334 334 335 334 334 334 336 336 336
325 328 332 335 334 336 336 337 337 334 336 337 337 337 338 338 337 337 338 337 339 340 338 339 340 339 338 338 339 338 339 338 338 340 340 341 341 341 342 342 341 341 341 341 340 340 339 340 341 341 340 340 339 338 338 337 337 337 336 334 335 333 332 335 335 332 326 325 326 327 329 332 333 334 333 333 334 334 333 333 334 334 334 335 335
323 326 331 333 334 335 336 335 336 336 336 336 337 337 336 336 335 336 337 337 338 339 341 340 339 339 340 340 339 337 339 339 338 339 340 340 340 340 340 340 340 340 339 339 340 340 340 340 339 340 340 338 337 337 337 337 337 337 335 333 332 334 332 334 334 332 327 329 329 326 323 324 328 329 332 334 334 333 333 333 333 333 334 336 335
319 326 329 330 333 333 334 334 334 335 334 335 336 335 336 337 337 338 337 337 337 340 340 340 341 341 342 342 341 339 336 337 338 339 339 338 337 338 338 338 338 338 338 338 338 339 339 338 339 339 338 338 337 336 336 335 336 336 335 335 333 329 331 331 334 333 330 328 321 322 325 323 320 323 327 330 333 333 332 330 332 332 334 334 334
322 327 328 329 330 331 333 333 334 333 334 334 334 333 333 334 335 336 337 338 339 339 339 339 339 339 340 338 339 338 339 338 337 335 335 334 335 335 335 337 336 336 336 336 336 337 338 338 338 337 338 337 338 336 335 335 335 337 335 334 333 330 328 331 332 334 333 334 327 323 321 319 320 326 327 328 332 331 331 332 332 332 332 333 332
327 324 327 329 329 329 331 332 332 332 332 333 334 332 333 333 334 336 337 337 337 338 340 340 340 338 337 334 333 333 331 331 330 330 331 331 331 334 335 336 335 335 334 335 335 334 334 334 336 336 336 336 336 335 335 337 336 335 335 336 334 334 332 329 329 334 335 334 333 331 326 321 323 325 323 319 330 331 332 333 333 333 333 333 332
325 324 325 327 327 327 328 329 330 328 328 330 331 333 333 333 335 336 335 335 336 336 336 337 337 336 336 335 334 332 329 329 331 332 331 331 332 332 332 333 333 333 333 333 333 333 333 333 334 334 335 335 335 334 334 334 336 335 336 336 335 333 332 327 328 329 334 332 332 334 334 333 331 325 319 323 319 328 329 331 331 333 333 333 332
324 325 325 325 326 327 326 327 328 327 328 329 330 332 332 331 331 332 332 332 332 332 333 335 334 334 334 332 331 330 329 328 329 330 331 331 330 330 330 331 331 331 331 330 330 331 331 332 332 332 332 333 334 334 333 334 335 337 337 336 336 334 331 331 331 332 327 328 331 328 329 330 331 330 328 321 321 317 324 332 333 331 331 333 333
326 324 323 322 324 324 323 324 325 326 326 327 327 328 330 330 330 331 330 330 331 333 333 333 334 333 332 330 329 330 329 328 329 330 330 330 329 330 329 329 329 330 330 329 329 329 330 331 330 330 330 331 332 332 334 333 332 331 332 332 332 334 335 334 331 329 328 327 328 327 327 327 328 330 329 327 322 319 320 324 325 330 332 333 331
327 325 323 323 323 323 324 324 323 323 325 325 326 327 327 329 328 328 328 328 328 328 329 329 330 330 328 328 328 326 327 328 329 327 327 328 328 328 328 326 327 328 328 327 328 328 328 329 329 329 329 330 330 330 331 332 332 331 331 331 332 333 335 334 330 331 331 330 329 328 325 326 326 326 326 326 325 324 319 321 324 323 321 329 332
323 322 322 323 323 322 323 321 322 322 323 323 323 324 326 326 327 326 326 326 327 328 328 326 327 327 327 326 326 325 325 325 325 325 325 326 325 325 325 325 325 325 326 325 325 325 326 326 325 325 326 327 328 329 329 330 331 332 332 332 331 332 333 335 335 334 331 329 330 329 327 326 325 323 324 325 324 322 322 321 323 324 323 323 332
320 319 318 320 321 322 321 319 320 321 322 322 323 324 324 324 324 323 323 324 324 323 323 322 323 323 324 325 324 324 324 323 323 322 322 322 322 321 323 323 322 323 324 323 322 323 324 324 322 322 322 323 323 325 326 327 329 331 331 331 331 332 333 333 333 334 333 332 329 330 331 332 330 328 328 328 326 324 324 323 323 325 325 327 327
319 317 316 317 318 318 318 318 319 319 319 320 320 321 321 321 320 319 319 321 321 321 320 320 321 321 322 321 321 321 320 320 320 319 320 319 319 319 319 318 319 319 319 318 319 320 322 321 320 319 319 320 318 319 321 321 321 325 328 330 330 330 330 331 330 330 331 330 330 332 332 331 330 332 331 330 329 328 325 322 325 327 323 324 329
317 315 315 317 318 318 318 317 318 319 319 320 320 320 320 320 319 318 318 319 319 319 319 318 318 318 319 319 319 319 318 318 318 317 317 317 317 316 316 316 316 316 316 316 317 319 320 319 318 318 317 317 316 316 318 318 318 320 322 323 325 327 327 328 331 331 330 331 332 331 331 331 331 332 331 329 328 327 324 323 323 325 325 322 324
317 317 316 315 315 316 316 316 317 319 320 320 319 320 320 319 318 317 316 317 317 317 317 316 316 316 316 317 317 317 316 315 315 316 315 315 315 315 315 315 315 315 315 316 317 317 318 318 316 314 314 314 314 313 314 315 316 318 319 320 321 322 322 324 325 328 328 329 329 331 330 331 332 333 333 330 329 328 326 325 324 319 320 320 319
316 316 315 315 316 316 315 315 316 317 318 318 319 319 318 318 317 316 316 316 315 315 315 315 315 315 315 315 315 315 315 315 314 314 314 314 314 314 314 314 314 315 316 316 315 315 315 316 316 312 311 311 311 311 311 312 312 313 314 315 316 318 316 318 321 323 324 326 329 330 329 329 331 331 332 332 332 331 329 328 326 323 318 315 319
315 316 316 316 316 316 315 315 315 316 317 318 318 318 317 316 315 314 314 314 314 314 314 314 314 313 313 313 313 313 313 312 312 313 313 313 313 313 312 312 313 313 313 314 314 313 314 314 314 312 310 310 310 309 309 310 310 311 311 311 312 313 313 315 317 318 319 321 322 325 328 329 330 331 332 332 332 332 331 330 329 325 323 318 316
316 316 316 316 315 315 314 315 315 315 315 315 315 317 316 315 315 314 313 313 313 313 313 313 312 312 312 312 312 312 311 311 310 309 310 309 309 310 311 310 310 311 312 312 312 312 312 312 311 310 309 309 308 308 308 308 308 308 309 309 310 310 310 312 314 314 314 316 318 319 322 326 330 331 331 333 333 331 331 330 329 329 327 321 320
312 312 312 313 313 313 313 314 314 315 315 315 314 314 314 314 314 314 312 313 313 312 312 312 312 311 311 311 310 310 309 309 308 308 308 307 307 307 308 308 309 309 310 310 309 309 309 308 308 307 306 306 306 306 306 306 306 306 306 306 307 307 307 308 310 311 312 313 313 314 317 319 324 327 330 330 331 331 331 330 329 329 328 325 322
311 312 311 311 312 313 313 313 313 314 314 314 314 314 313 313 313 312 312 312 312 312 312 311 311 310 310 310 309 308 308 307 307 307 307 306 306 306 306 306 307 308 308 308 307 306 306 306 306 305 304 304 304 305 305 305 305 305 305 304 305 305 305 306 307 309 310 310 310 311 312 314 316 320 324 328 330 331 332 330 329 329 328 327 324
312 312 311 311 311 312 311 312 313 313 313 313 313 313 313 313 312 312 311 311 311 311 311 310 309 308 308 307 307 307 307 307 307 307 306 306 306 306 306 306 306 306 307 306 306 305 305 305 304 304 303 304 304 304 304 304 304 303 303 304 304 304 303 304 305 306 308 309 309 310 311 313 315 316 319 323 326 329 330 330 329 328 327 328 326
312 312 311 311 311 311 312 312 312 312 311 312 312 312 312 311 311 311 311 310 310 309 309 308 308 308 307 307 307 307 307 307 306 306 306 305 306 305 305 305 305 305 306 305 305 305 304 304 303 303 303 304 304 304 304 303 302 301 302 303 302 302 302 303 304 304 306 307 308 308 310 311 314 314 316 317 320 324 326 328 328 328 327 327 330
311 311 311 310 310 311 311 311 311 311 311 311 312 312 311 310 310 310 309 309 309 309 308 308 307 307 307 307 307 307 306 306 305 305 305 304 305 305 305 304 304 304 305 304 304 304 303 303 303 303 303 303 303 303 303 302 301 300 301 301 302 302 302 303 303 304 305 306 307 308 308 310 312 312 314 316 319 321 323 324 325 327 327 327 328
311 310 311 310 310 311 310 309 309 310 310 310 310 310 310 309 308 309 308 309 309 308 308 307 307 307 307 307 306 306 305 305 305 304 304 304 304 304 305 304 303 304 304 304 304 303 303 303 303 303 303 303 303 303 303 302 301 300 300 300 301 302 303 304 305 305 306 307 307 307 308 309 310 311 313 315 317 318 318 320 321 324 326 327 328
310 309 308 308 308 308 308 309 309 309 310 310 309 309 308 308 308 307 308 308 308 308 307 306 306 306 306 305 305 305 304 304 304 304 304 304 304 304 304 303 303 303 303 304 304 304 303 303 302 302 302 302 302 302 302 302 301 301 300 301 302 303 304 305 306 306 307 306 306 307 307 308 308 308 309 311 311 311 312 314 317 319 321 324 327
309 309 308 308 307 307 307 308 308 308 309 309 309 308 307 307 307 308 308 308 308 308 307 306 306 305 304 304 304 304 304 304 304 304 304 304 304 303 303 303 303 302 302 303 303 303 303 302 302 303 302 302 302 301 301 300 300 301 301 302 303 304 305 305 305 306 306 306 305 305 306 305 305 305 306 307 307 307 308 309 310 312 317 321 323
308 308 308 308 307 306 306 307 307 308 308 308 307 306 306 306 307 308 308 308 308 307 306 306 305 305 304 304 304 304 303 303 303 303 303 303 303 303 302 302 302 302 301 302 302 302 303 302 302 302 302 301 301 301 300 299 300 301 302 302 303 304 305 305 305 305 305 305 304 304 304 305 304 305 304 304 303 304 304 304 306 308 312 316 319
308 308 307 306 306 306 306 306 306 307 307 307 307 305 305 306 306 307 307 307 307 306 305 305 304 304 304 303 303 303 303 303 303 303 302 302 302 302 302 302 302 302 301 301 301 301 302 302 301 301 301 301 300 299 298 298 299 300 301 302 303 303 303 304 304 304 305 304 304 303 304 304 304 304 303 302 302 301 302 302 304 306 307 309 312
305 306 306 305 304 304 305 305 306 307 306 306 304 304 305 305 305 305 305 305 305 305 304 304 303 303 302 303 303 302 302 302 302 302 301 301 301 301 301 301 301 301 302 301 301 301 300 300 301 301 300 301 300 299 298 296 297 299 301 302 302 303 303 302 303 303 303 303 303 303 303 304 305 305 302 301 301 300 300 299 301 302 302 303 306
305 306 305 304 304 304 304 305 305 305 305 304 303 303 304 304 304 304 304 304 304 303 302 302 301 301 301 301 301 301 301 301 301 300 300 301 301 301 301 300 300 300 301 301 300 300 300 300 300 300 300 300 299 298 296 294 295 297 299 301 302 303 302 302 302 301 302 302 302 302 303 304 302 301 300 299 297 298 298 299 299 299 300 300 301
304 304 304 303 304 304 304 304 304 304 304 302 302 302 303 303 303 303 303 303 303 301 301 300 299 300 301 300 300 299 300 299 300 300 300 300 300 300 300 300 300 300 300 300 300 300 300 300 299 299 299 299 298 297 293 292 292 293 298 301 301 301 302 301 301 300 299 300 300 301 302 303 303 301 301 298 297 296 295 295 296 297 298 299 299
303 303 303 303 303 303 303 303 304 303 303 302 301 302 302 301 302 301 301 302 301 300 299 299 299 299 299 299 299 299 298 299 299 299 299 299 299 299 299 299 299 299 300 300 299 299 299 300 300 299 299 299 298 295 291 292 292 292 294 299 301 300 300 300 300 299 299 299 299 299 300 301 301 301 301 300 298 296 295 295 295 295 295 295 296
303 302 302 302 302 302 303 303 303 303 302 302 302 301 301 300 300 300 300 299 299 298 298 297 298 298 298 299 298 298 298 298 298 298 299 299 299 298 298 298 299 299 300 299 299 299 299 299 299 298 298 298 298 293 292 292 292 291 291 296 300 300 300 300 299 299 299 298 298 298 298 299 299 301 301 298 297 297 297 296 298 299 299 298 295
302 302 302 302 302 302 303 303 303 303 303 302 302 301 300 300 300 299 298 298 297 297 297 297 297 297 297 297 297 297 297 297 298 298 298 298 298 298 298 299 299 299 299 299 299 299 299 298 299 299 298 298 298 294 292 292 292 291 291 294 300 300 300 300 299 299 298 298 297 297 297 297 297 297 297 296 295 296 297 300 304 306 307 305 301
302 301 301 301 301 302 301 301 300 301 301 300 299 299 299 298 298 298 298 297 297 296 297 296 296 296 297 297 297 297 297 297 298 298 298 298 298 298 298 298 299 298 298 298 298 298 298 298 299 298 298 298 297 292 291 291 291 291 291 295 300 299 299 299 299 299 298 298 297 297 297 296 296 296 296 294 294 295 297 301 304 305 306 308 309
302 302 302 301 301 301 301 301 301 300 299 299 299 299 298 297 298 297 296 296 296 296 296 296 296 296 296 297 297 296 297 297 297 297 297 297 297 298 298 298 299 299 299 299 298 299 298 298 298 298 298 298 298 292 291 291 291 291 293 299 299 298 298 298 298 298 298 298 298 297 296 295 295 295 295 291 292 294 298 301 302 304 306 310 312
304 303 302 302 302 301 301 301 300 298 298 298 298 298 297 296 296 296 295 295 295 294 295 295 295 296 296 296 297 296 296 297 297 297 296 297 297 297 298 299 298 298 298 298 298 298 298 297 298 298 297 297 298 294 291 291 291 290 295 299 298 298 297 297 297 298 298 298 297 297 296 294 294 294 293 290 291 293 298 299 300 302 304 304 304
302 302 301 301 301 301 301 299 298 298 298 298 297 296 295 294 293 293 293 294 294 294 295 295 295 296 296 296 297 297 296 296 296 296 296 297 297 298 297 298 298 297 297 298 298 298 298 298 297 297 297 297 298 296 291 291 291 291 294 298 298 297 297 296 296 297 297 297 297 297 298 294 293 294 291 290 291 294 296 297 298 299 300 299 301
302 301 300 300 300 300 300 299 298 296 297 297 296 295 295 294 294 294 294 294 294 294 295 295 295 296 296 297 297 297 296 296 296 296 297 296 297 297 298 299 298 298 298 298 298 297 297 298 298 298 297 298 298 297 292 291 291 291 294 298 297 296 295 295 296 296 297 297 297 296 296 294 293 292 290 290 290 293 295 296 297 297 297 297 299
302 302 301 301 301 299 298 297 297 298 299 298 296 296 295 294 294 295 294 294 294 295 295 296 296 297 297 297 297 297 297 296 296 296 297 296 297 297 298 298 298 298 297 297 297 297 297 297 298 298 298 298 297 298 296 291 291 291 291 296 297 295 295 295 295 295 295 296 296 296 295 292 290 290 290 290 290 291 294 296 296 295 294 294 300
300 300 300 300 300 299 298 298 298 298 298 297 297 296 295 295 295 295 294 295 296 296 296 296 297 296 296 297 297 297 297 297 297 296 296 296 297 297 297 297 297 297 297 296 297 297 297 297 298 298 298 298 298 297 297 291 291 291 291 293 297 294 295 296 296 295 295 295 295 295 295 292 290 290 290 290 290 290 292 295 294 294 294 294 298
301 300 300 300 300 300 299 299 299 298 298 298 297 296 295 295 295 294 296 297 297 296 297 296 296 296 297 297 297 297 298 298 298 297 296 296 296 297 296 296 296 296 296 296 296 296 296 297 297 298 298 298 298 296 296 294 291 291 290 290 294 295 294 297 295 296 295 296 296 295 295 292 290 290 290 290 290 290 291 294 293 290 291 291 297
299 299 299 300 300 299 299 298 298 298 298 298 298 296 296 296 295 296 297 298 297 297 297 296 296 296 297 297 297 298 298 298 298 298 297 296 296 296 296 296 296 296 296 295 296 296 296 296 296 296 297 298 298 298 293 295 292 290 290 290 290 292 290 297 296 295 295 295 296 296 296 292 290 290 290 290 290 290 292 292 290 290 291 291 295
299 299 300 301 300 299 298 298 298 298 299 299 298 296 296 296 296 298 298 298 298 297 297 297 297 297 297 297 296 297 298 298 298 298 297 297 296 296 296 296 296 295 295 294 295 295 295 295 295 295 296 297 298 298 295 292 294 291 291 290 290 290 290 295 297 296 296 296 295 295 294 290 290 290 290 290 290 290 291 290 290 290 291 292 295
299 299 300 300 299 297 297 297 297 298 299 299 298 297 297 296 297 299 298 298 298 297 297 297 297 297 297 296 297 298 298 298 298 298 297 296 296 297 295 296 296 295 295 294 294 295 294 294 294 295 295 296 297 297 297 295 292 292 291 290 290 290 290 290 296 296 297 296 292 290 290 291 291 291 291 291 292 291 290 290 290 291 293 293 293
300 300 300 299 298 297 296 296 297 299 299 299 299 298 297 297 299 299 299 298 298 297 297 297 297 297 296 297 297 297 297 298 298 298 298 297 297 296 295 296 296 295 295 294 294 294 293 294 294 294 295 295 296 296 296 297 296 295 294 292 291 291 292 292 293 295 291 291 291 291 291 292 292 293 296 295 294 293 290 290 291 292 293 293 293
299 300 298 297 297 296 297 297 297 298 299 299 299 299 299 299 299 300 299 299 298 298 297 298 298 297 298 297 297 297 297 298 298 298 298 297 297 297 297 295 295 295 295 294 294 294 293 294 293 294 295 295 295 295 295 296 296 297 297 297 297 297 294 293 295 296 295 296 295 294 294 292 293 291 292 292 293 293 293 293 292 293 293 293 293
300 299 298 297 297 297 297 297 297 298 299 299 299 299 299 300 300 300 300 300 299 298 298 298 298 298 298 298 298 292 295 297 297 298 297 297 297 298 296 295 295 295 295 294 295 294 294 294 293 294 294 294 294 294 294 294 295 294 295 296 296 296 296 296 294 295 297 297 296 293 294 297 296 296 295 296 296 296 295 293 293 292 292 293 293
298 298 298 298 297 297 298 298 298 299 300 300 300 300 300 300 300 300 300 299 299 298 299 299 299 298 298 298 298 298 297 297 297 297 297 298 297 297 297 297 297 297 296 296 296 295 295 296 295 294 294 294 293 293 293 289 292 289 290 293 294 293 294 295 292 289 295 296 295 294 295 294 294 292 292 293 294 294 294 294 294 292 292 292 292
299 299 299 298 299 299 299 298 298 299 299 299 300 300 300 300 300 300 300 300 299 299 299 299 299 299 299 298 298 298 298 297 297 296 297 297 289 289 294 297 297 291 286 286 288 294 295 296 296 296 296 293 293 294 289 288 288 289 288 288 288 288 288 290 289 288 292 293 292 291 292 292 292 292 291 291 292 292 293 293 293 291 292 291 291
299 298 297 297 298 299 299 298 298 299 299 299 299 300 300 300 300 300 300 300 300 298 298 298 299 298 297 299 298 298 298 298 298 297 297 296 297 295 288 286 288 290 290 288 287 287 288 288 293 296 295 289 288 288 288 288 288 288 288 288 288 288 288 288 288 291 293 291 291 290 291 291 291 291 291 291 292 291 291 292 292 293 293 291 290
Wind_Speed
7 10 7 9 10 9 8 7 6 7 7 8 8 8 8 7 7 7 7 8 7 7 5 4 5 4 4 4 5 5 4 5 5 5 5 5 5 4 4 3 3 3 3 2 2 3 3 3 3 3 3 4 4 3 6 6 6 7 6 5 6 8 7 5 6 6 7 6 6 8 9 9 10 11 11 8 7 8 8 9 10 10 9 7 7
6 4 9 9 7 8 8 6 8 9 9 8 8 8 8 8 8 7 6 5 5 6 6 5 4 4 4 5 5 5 4 5 6 6 6 6 7 7 6 5 5 5 4 3 3 3 3 3 3 3 3 4 4 4 6 6 6 5 5 6 4 6 7 5 5 3 5 6 6 6 6 7 8 9 10 11 10 9 8 9 11 11 11 7 7
4 7 8 7 8 8 6 8 7 9 9 9 9 10 10 8 8 8 6 6 6 6 5 5 4 4 3 4 4 6 5 5 6 6 6 7 7 8 7 7 7 6 6 5 3 4 5 5 5 5 5 5 6 6 6 6 5 6 6 7 7 5 5 6 5 4 5 3 5 7 7 5 6 8 9 11 11 9 8 9 10 12 14 9 7
6 7 9 9 7 8 9 9 8 8 8 9 9 9 7 7 8 8 7 6 6 6 5 5 5 5 5 5 5 5 4 4 4 4 6 7 8 7 7 7 7 7 7 7 6 5 5 5 5 4 5 5 5 5 6 7 5 6 6 7 7 9 6 3 4 6 5 5 5 4 4 4 8 7 8 8 10 13 13 12 10 11 12 13 10
9 5 8 10 8 10 9 8 8 7 8 9 8 7 6 8 8 9 7 6 6 5 6 6 7 8 6 6 5 5 3 2 3 5 5 6 6 7 7 7 7 8 8 8 7 6 6 6 6 6 5 6 5 6 5 6 7 6 7 6 7 6 8 5 4 4 6 6 7 5 5 5 8 5 3 6 7 9 13 13 11 11 11 11 11
8 6 5 10 8 8 8 10 9 7 8 8 9 9 10 9 10 9 8 7 7 7 7 6 5 5 6 6 5 4 4 4 5 5 4 6 6 6 7 7 7 8 8 8 8 7 7 6 6 6 6 6 6 6 6 5 6 6 7 6 7 6 6 8 7 4 5 7 9 9 8 8 7 5 4 5 4 8 8 11 11 9 9 9 10
7 7 5 6 8 8 8 10 10 9 9 8 9 9 9 8 8 10 9 8 6 6 6 5 6 5 5 4 4 3 5 5 5 4 4 4 4 6 6 7 8 8 8 8 8 8 7 7 6 6 6 6 6 6 7 6 5 6 6 6 5 6 6 7 7 6 4 6 7 9 10 9 10 8 6 5 8 4 7 8 9 12 11 10 10
10 10 8 4 8 11 9 11 11 10 8 7 7 7 9 8 8 8 8 7 6 5 6 5 6 5 6 6 7 6 6 6 4 4 4 4 5 5 5 7 8 8 8 8 7 7 7 7 7 7 6 6 6 6 6 6 5 4 5 5 5 4 6 6 7 5 7 6 4 7 9 9 9 9 10 10 9 9 5 5 7 9 9 10 9
14 12 11 8 4 9 6 10 11 8 5 7 7 6 7 8 8 9 9 8 7 7 6 6 5 6 6 6 7 6 6 5 4 3 3 3 5 5 6 6 7 8 8 8 8 8 7 8 8 7 7 6 6 6 7 7 8 7 6 5 5 5 4 5 6 6 6 7 7 6 6 8 8 7 9 7 7 8 10 6 6 5 6 8 9
11 10 8 10 10 9 7 11 9 6 4 8 8 6 6 7 9 10 10 8 7 8 8 8 7 6 6 5 6 5 4 3 3 3 4 4 5 5 5 6 6 6 7 8 8 8 8 8 8 8 8 8 7 7 8 9 8 7 8 7 6 6 4 5 6 6 5 6 7 7 6 6 8 7 6 6 8 9 11 8 5 5 7 6 9
12 11 10 11 10 10 6 13 8 7 6 8 7 7 6 7 9 12 10 8 8 9 9 9 7 7 7 7 7 6 5 4 4 4 4 4 4 5 5 4 5 5 6 7 8 8 7 8 8 7 7 7 7 8 8 9 9 8 7 8 8 9 6 6 6 6 6 6 7 6 7 7 7 7 6 5 6 6 6 8 8 8 9 10 7
13 13 11 12 13 11 8 13 8 8 9 8 7 7 7 8 10 12 10 9 8 8 9 9 8 9 8 8 8 7 6 5 5 5 5 5 5 4 4 4 5 5 6 6 8 8 6 7 7 7 7 7 8 7 7 8 8 8 9 8 8 8 9 7 7 7 7 6 7 6 7 7 7 7 8 7 7 8 8 9 7 5 8 9 9
11 10 8 11 12 11 10 9 8 7 8 8 9 8 8 9 10 11 10 8 8 9 10 10 10 9 8 8 8 7 7 7 6 6 5 5 4 5 5 4 5 5 6 6 8 8 6 7 8 8 6 6 7 7 7 8 8 8 8 9 10 10 9 10 10 10 9 8 8 7 7 7 8 8 8 9 8 7 8 9 9 8 10 7 7
11 11 7 7 9 11 11 11 9 9 9 9 9 9 8 8 9 11 10 9 9 10 10 11 11 10 9 9 8 7 7 7 6 6 6 5 5 5 5 5 5 6 6 6 6 6 6 6 7 6 6 7 7 7 7 7 8 8 8 9 10 9 9 11 10 10 10 10 8 8 8 7 7 7 7 8 8 9 9 9 9 6 6 10 6
11 11 10 8 8 8 5 6 8 9 10 10 9 9 9 10 10 10 10 9 10 10 10 11 9 10 9 8 8 7 7 6 6 6 6 6 6 5 5 5 5 5 5 5 6 6 7 6 8 7 7 8 8 8 7 7 8 8 7 8 7 7 8 8 9 11 10 12 11 10 10 8 7 6 6 7 7 8 9 8 8 10 8 9 8
11 13 12 12 10 11 4 7 8 9 10 10 10 10 11 11 11 10 10 9 10 10 9 9 9 8 9 10 9 8 7 7 6 6 6 6 6 6 6 6 5 5 5 6 7 6 6 7 7 8 9 8 8 8 9 8 9 8 8 8 9 7 9 11 9 9 10 12 12 11 11 11 9 8 8 7 7 8 9 9 9 10 9 8 6
12 13 12 12 10 8 6 8 9 9 9 10 10 11 12 10 10 11 10 9 10 9 9 9 9 10 10 10 9 9 9 9 7 8 7 7 7 6 6 6 6 6 5 6 7 8 8 8 8 9 9 9 9 10 10 10 10 9 9 10 10 10 9 10 9 9 9 10 9 12 11 11 10 9 8 8 7 7 9 9 8 10 10 11 8
15 14 12 11 9 8 6 8 10 11 11 11 11 10 9 9 10 11 10 10 9 9 8 8 9 10 10 10 10 9 9 9 8 8 7 7 7 6 6 6 7 6 6 6 7 8 9 10 9 9 9 10 11 10 11 11 11 9 10 10 10 11 10 9 9 9 10 9 10 9 9 10 10 11 9 9 9 9 9 8 8 8 9 12 9
15 14 11 11 11 8 7 9 10 9 9 11 10 10 10 10 10 10 10 9 8 7 8 8 8 8 8 9 10 10 9 8 8 8 7 8 8 7 8 8 7 7 7 8 8 9 9 9 9 9 10 11 11 11 11 11 11 10 10 9 10 11 10 11 10 11 10 10 11 12 10 10 10 12 12 11 9 9 7 7 9 8 9 11 10
16 15 13 13 12 10 8 9 11 11 11 11 11 10 12 10 11 10 9 9 9 9 8 9 9 10 10 11 10 9 9 9 8 8 8 8 8 8 7 8 9 8 8 9 9 10 10 10 10 10 11 11 12 11 11 11 10 10 10 9 10 11 11 10 10 10 10 11 12 12 12 10 11 11 11 12 11 10 9 9 9 9 9 10 11
13 13 13 14 15 12 9 8 9 10 10 10 10 11 10 10 10 10 10 9 9 8 9 9 9 10 11 11 10 9 9 9 9 9 8 8 8 8 8 7 7 9 9 9 10 10 11 11 11 11 12 12 12 12 11 11 11 11 10 10 10 11 11 10 10 11 10 11 11 12 13 13 12 12 11 11 12 12 11 9 8 9 9 9 10
15 13 15 14 12 11 10 9 9 11 11 11 10 11 11 10 9 8 9 8 8 8 9 10 9 10 11 10 10 9 9 9 10 10 10 9 9 9 8 8 8 9 10 10 11 10 10 11 11 12 13 13 13 13 13 11 11 11 11 9 10 11 11 10 10 11 12 10 11 12 12 13 12 12 12 12 11 12 13 12 9 7 9 9 7
17 15 14 12 12 12 12 12 12 12 11 11 11 10 10 10 9 8 9 9 8 9 9 9 9 10 10 10 9 9 9 10 11 10 11 10 9 9 9 9 8 8 10 10 11 11 11 12 12 12 13 13 14 13 13 12 11 11 11 11 11 11 11 11 11 12 12 12 12 12 12 12 10 12 14 12 12 12 12 13 13 10 9 10 9
16 11 9 10 11 12 12 12 12 11 10 11 11 11 11 9 8 8 10 10 9 8 9 9 10 10 10 10 10 10 11 11 11 10 11 11 9 9 9 9 9 9 10 10 11 11 11 12 12 13 13 13 14 14 14 13 12 12 11 12 11 11 11 11 12 12 13 13 13 14 14 14 13 13 13 12 11 11 12 10 13 12 11 11 9
17 16 13 11 11 11 11 11 11 10 10 11 12 12 11 10 8 9 9 9 9 8 9 9 10 11 11 11 11 11 11 12 12 10 11 11 10 9 9 10 9 10 10 10 11 11 12 12 12 13 13 13 14 14 15 15 13 12 12 11 11 11 11 12 12 11 11 11 11 12 12 13 13 13 12 11 11 14 13 11 12 11 11 11 8
21 18 16 14 12 10 10 10 10 10 11 12 12 12 11 10 8 8 9 9 8 8 8 9 9 10 11 11 11 11 12 12 11 11 11 10 10 10 9 9 10 10 10 11 12 12 12 13 13 13 13 13 13 14 14 14 14 13 12 11 11 11 11 11 11 11 12 11 10 11 11 12 12 12 12 13 14 15 14 13 14 13 13 12 13
20 19 14 13 12 13 11 9 9 11 10 11 13 12 11 10 9 9 8 8 8 8 8 9 9 10 10 11 10 10 10 10 10 10 9 10 10 10 10 10 9 10 10 10 11 13 12 12 13 12 13 14 14 14 15 15 15 14 12 12 12 12 12 11 12 12 12 12 11 11 11 11 12 13 13 13 14 15 12 14 13 13 12 12 12
9 10 15 15 14 13 11 12 13 12 12 12 12 11 10 9 9 9 8 8 6 8 8 8 8 9 9 10 9 9 10 10 9 10 10 10 9 9 9 9 9 10 10 11 12 12 11 11 12 13 13 12 13 14 16 16 15 14 13 12 12 12 13 12 13 13 13 13 13 12 12 12 13 13 14 14 13 13 13 14 12 12 12 12 12
15 15 12 15 16 14 14 15 13 13 15 14 11 10 9 9 9 8 8 8 8 8 8 8 8 8 8 8 8 8 9 9 9 10 10 10 9 9 10 9 10 9 8 10 10 10 10 11 11 11 12 11 11 12 13 15 14 14 13 11 12 12 13 13 14 14 14 14 14 14 13 13 16 19 19 16 15 14 12 13 13 13 13 12 12
20 19 15 13 17 16 16 15 13 14 15 13 11 10 10 10 9 8 8 7 8 8 8 8 8 8 8 8 9 9 9 8 9 9 9 9 9 9 9 10 10 10 9 9 9 9 10 10 10 11 11 10 13 13 19 22 19 14 12 10 11 11 12 12 13 14 14 15 15 14 15 21 21 22 20 19 18 18 19 14 13 13 14 13 12
18 17 16 14 14 16 16 13 12 13 14 12 10 10 10 10 9 8 8 7 8 9 8 8 8 7 8 8 8 8 8 9 8 8 8 9 10 9 9 10 9 9 9 9 9 10 10 10 11 11 12 11 12 15 22 19 19 21 14 10 11 11 12 12 13 14 14 15 16 16 15 17 19 20 20 20 19 21 21 22 22 19 16 14 13
18 16 15 16 16 14 14 13 13 14 14 13 11 11 10 9 8 8 8 8 9 8 8 8 7 7 8 8 8 9 8 8 8 8 8 9 9 9 9 9 8 9 8 8 10 10 9 10 9 11 12 12 13 19 19 20 19 19 17 11 10 10 11 11 12 14 13 14 15 15 15 14 14 19 20 19 23 25 24 23 22 21 19 18 17
16 15 16 16 14 13 14 14 12 12 12 11 12 12 10 9 10 8 8 9 9 8 8 8 7 8 8 8 8 8 8 7 7 8 8 8 9 9 9 9 9 8 8 10 10 10 10 10 11 11 12 13 14 19 19 20 20 19 17 13 10 11 11 12 12 13 14 14 14 14 16 15 15 25 19 19 20 23 26 25 21 19 17 16 15
13 14 14 13 12 12 11 12 12 12 12 11 10 11 10 9 9 9 9 9 9 8 8 8 8 8 8 8 8 8 8 7 7 8 8 9 9 9 8 7 7 8 9 10 10 11 10 12 11 11 11 13 16 19 19 20 20 19 17 13 12 11 11 12 13 13 13 14 15 15 15 17 18 18 17 21 22 22 20 19 19 18 18 18 15
16 14 13 13 14 14 14 14 13 13 13 13 12 11 11 9 9 10 9 10 9 9 8 8 8 7 7 8 8 8 8 7 8 8 9 9 9 8 9 7 8 8 9 9 9 10 10 12 11 12 11 12 13 18 19 20 19 19 16 11 14 11 12 12 12 13 14 14 15 15 15 15 17 17 17 23 22 22 20 16 18 19 17 16 14
17 17 16 16 16 16 15 13 11 12 12 13 12 11 11 10 8 9 9 9 9 9 9 8 8 8 8 8 8 8 7 8 9 9 9 9 9 8 8 7 7 8 8 8 9 9 10 12 11 12 11 13 12 18 19 19 20 21 17 11 14 13 13 12 13 14 14 13 14 16 15 16 17 18 23 27 24 22 17 17 17 17 16 14 11
14 15 16 15 15 15 14 13 11 12 13 12 12 12 12 11 9 8 9 9 9 9 9 8 8 8 8 7 7 8 8 9 9 9 9 9 9 8 7 6 8 8 9 9 9 9 9 12 12 13 12 11 13 16 19 19 20 21 15 13 13 12 12 13 13 14 13 14 14 16 16 15 16 17 24 26 26 26 16 17 17 17 14 12 12
15 15 15 14 14 14 14 13 13 12 12 12 11 11 11 11 9 7 9 10 10 10 9 9 9 8 8 8 8 8 9 9 9 10 9 8 8 7 7 6 7 8 9 8 7 9 9 11 12 11 11 12 11 15 18 19 19 20 16 13 12 12 12 13 13 14 13 13 15 20 20 18 17 18 25 25 26 24 17 17 17 17 17 15 14
18 20 20 17 15 15 14 14 15 15 11 11 12 14 12 11 9 9 10 11 11 10 10 10 9 8 8 8 8 9 9 9 10 9 8 8 7 6 5 6 6 7 7 7 8 8 9 9 9 10 11 12 12 14 18 19 19 19 15 12 12 11 12 13 13 13 13 13 14 15 21 21 20 20 23 24 26 23 16 17 17 16 15 16 14
14 12 14 16 17 17 15 14 14 13 13 14 13 11 12 11 10 10 11 11 11 10 9 9 9 9 8 9 8 9 9 10 10 9 8 7 6 7 7 7 7 7 8 8 8 9 10 9 9 10 10 11 12 13 15 18 18 18 19 12 12 11 12 13 13 13 13 14 15 15 17 22 23 22 23 23 24 24 18 16 16 15 15 15 11
16 15 17 14 14 15 15 15 14 14 13 13 12 12 12 12 11 11 12 11 9 9 9 9 9 10 10 9 8 9 10 9 8 8 7 7 7 7 7 8 8 7 8 8 8 8 9 10 10 10 11 11 10 12 13 15 17 17 18 15 12 13 11 12 12 14 14 14 15 15 16 21 22 23 22 24 24 24 22 17 16 14 14 15 13
16 18 17 14 13 14 16 15 14 14 13 12 13 13 13 12 12 12 10 8 9 9 9 10 10 10 9 9 9 8 7 6 6 7 8 8 7 7 7 7 7 7 9 9 8 8 9 10 10 10 10 10 10 13 12 13 16 16 16 17 12 12 11 11 13 13 14 14 15 15 16 19 21 22 22 23 24 23 24 15 18 23 23 22 15
16 12 12 16 15 16 16 16 14 14 12 12 14 14 13 12 13 11 9 9 9 9 10 10 10 10 9 8 7 7 6 5 6 6 8 8 7 7 6 6 5 6 8 8 9 8 9 10 10 10 9 10 10 9 13 13 15 15 15 15 15 13 14 12 13 14 14 14 14 15 15 20 20 20 21 22 22 23 18 19 26 25 25 24 18
15 16 16 16 16 15 15 14 12 11 11 12 14 14 13 13 13 9 8 8 8 9 10 9 8 8 7 7 7 6 5 5 5 5 7 8 7 6 7 6 6 6 7 8 8 8 9 9 9 9 9 9 9 9 10 13 13 14 14 15 14 15 15 10 10 10 10 11 12 13 13 17 18 19 19 19 21 22 18 21 22 24 22 19 13
17 17 17 16 17 17 14 13 11 12 11 12 12 14 14 14 10 9 9 9 8 9 8 8 8 7 6 5 5 5 4 4 4 4 7 7 7 6 7 6 6 7 8 8 8 8 8 8 8 8 9 9 9 9 9 11 13 13 13 14 14 15 15 14 10 10 10 10 11 14 16 16 17 18 18 17 17 20 23 21 21 21 19 12 13
15 17 16 15 15 16 16 15 13 13 11 10 11 14 15 12 10 9 9 9 8 8 8 7 7 6 5 5 6 5 4 3 3 3 4 4 5 5 6 6 7 7 8 8 8 8 8 8 8 8 8 9 9 10 10 10 10 12 12 13 14 13 14 12 10 10 11 11 12 13 14 15 15 14 13 14 13 13 17 20 20 19 13 13 13
18 17 16 15 16 15 16 16 14 12 11 10 10 10 12 10 9 9 9 9 9 8 7 6 5 5 4 4 5 4 4 3 2 3 3 3 3 4 5 7 7 7 8 8 8 8 8 7 7 7 7 8 9 10 10 9 10 9 10 11 12 11 13 13 13 11 12 11 12 13 11 11 12 13 14 13 14 15 15 15 14 13 13 12 12
16 16 15 15 15 16 16 16 14 12 11 11 10 10 11 10 9 8 8 8 8 8 7 6 5 4 4 4 4 2 2 4 3 3 4 4 4 4 6 6 6 6 7 7 7 7 7 6 7 7 7 8 9 10 10 9 9 9 9 9 10 10 10 10 11 11 10 10 10 11 12 12 13 14 14 14 14 13 13 12 14 13 13 13 14
17 16 17 16 16 16 16 15 13 11 11 10 10 9 10 10 9 8 8 8 7 7 6 6 4 4 3 2 2 3 3 3 4 3 3 3 3 4 4 4 3 3 4 4 5 5 5 4 5 7 7 8 8 10 8 8 7 8 7 8 9 9 9 9 10 13 9 10 11 12 13 13 14 13 14 14 14 14 14 13 13 13 13 13 13
15 15 16 15 15 16 16 15 12 11 11 11 10 9 9 9 8 8 8 7 7 6 6 6 4 4 3 3 3 3 2 3 3 4 4 4 2 1 3 2 3 3 2 4 5 3 4 5 5 5 5 6 6 5 9 11 12 12 12 12 10 12 11 9 12 14 9 9 11 11 12 12 11 14 12 12 12 13 13 12 12 12 13 13 13
16 16 15 14 14 15 15 13 11 10 11 10 9 9 9 8 8 8 8 8 8 6 6 5 5 5 3 3 3 3 2 3 3 3 4 4 4 4 3 1 4 4 4 4 5 6 5 5 4 5 4 5 5 8 10 11 12 12 12 12 11 12 13 13 14 8 9 10 10 11 11 10 10 12 10 11 10 11 11 10 12 11 10 11 10
Wind_Direction
142 146 164 161 149 147 139 139 140 142 146 148 140 134 127 119 119 117 134 138 139 131 110 95 98 101 94 85 70 61 60 70 64 55 55 48 43 44 37 29 21 359 342 325 319 303 306 309 302 299 300 297 287 331 323 320 326 319 301 286 287 294 286 261 239 249 267 269 252 254 256 251 247 241 232 222 228 235 237 238 236 230 224 207 202
48 319 154 138 140 136 138 139 144 144 146 143 142 132 131 139 136 127 121 125 117 96 99 104 91 81 85 79 77 65 66 61 64 62 62 60 54 48 42 36 33 33 21 8 351 332 315 302 306 317 327 295 287 284 290 287 275 284 299 289 266 290 301 298 281 236 240 245 275 270 250 247 243 242 240 233 227 226 222 228 234 232 228 204 195
136 245 139 147 141 133 134 140 135 134 135 135 137 141 134 123 123 124 119 114 104 106 116 114 128 137 106 105 98 92 72 73 79 77 72 69 59 53 47 42 38 36 29 23 3 358 350 342 335 334 317 311 312 321 320 299 285 292 315 303 299 272 277 282 273 218 276 258 268 280 277 273 236 228 238 240 232 227 222 228 231 231 231 216 200
181 208 142 164 145 124 132 130 132 137 133 126 116 108 107 117 113 107 107 112 117 124 122 104 106 115 102 102 97 91 99 106 100 80 66 63 58 51 51 47 46 42 33 27 19 10 356 340 332 324 329 320 324 311 310 316 320 319 313 312 311 305 311 292 234 227 231 265 272 229 283 273 286 251 233 233 231 229 226 230 228 231 231 228 224
192 159 149 148 147 144 136 138 132 125 117 116 118 117 118 118 116 122 123 116 120 124 125 131 123 117 110 98 102 112 118 97 84 62 55 56 56 49 47 48 48 46 35 29 24 13 4 354 342 340 334 324 324 324 325 328 323 316 324 323 317 313 310 304 289 241 230 221 263 284 258 248 262 292 313 257 216 227 229 227 226 228 227 223 220
188 145 151 129 126 116 136 128 112 105 114 121 121 123 122 118 119 117 114 116 118 119 127 129 123 118 125 121 110 98 69 49 52 48 50 53 55 58 53 45 49 46 39 31 24 19 16 3 352 343 338 342 340 329 320 319 326 332 333 319 312 313 304 304 301 270 237 248 250 255 267 285 299 305 302 285 148 229 235 231 228 225 231 223 224
148 131 119 124 135 125 129 118 118 112 117 121 123 120 111 106 104 113 111 108 100 97 101 106 106 105 105 102 89 94 109 86 84 84 75 66 61 51 47 43 39 42 41 32 27 21 18 16 9 3 356 350 349 336 336 327 321 321 319 318 319 314 308 305 301 310 277 254 258 254 257 255 263 276 267 289 282 203 220 233 232 231 231 227 225
150 144 125 130 145 130 118 123 120 121 122 113 103 102 104 103 100 94 86 81 78 81 75 80 94 97 103 98 102 101 99 106 94 85 78 71 61 51 45 43 41 41 39 35 28 24 20 17 13 13 10 0 346 342 335 327 329 329 325 322 310 308 310 304 308 308 308 309 252 265 269 265 260 260 258 266 280 288 265 207 236 234 227 230 226
158 153 144 141 121 106 104 111 108 109 109 108 97 95 101 97 91 88 85 81 74 76 83 74 85 98 96 103 100 96 97 94 96 83 79 66 58 52 44 39 37 39 38 36 29 24 22 19 18 16 8 359 353 350 343 340 341 339 334 325 315 313 312 314 313 326 314 304 307 286 268 270 267 251 263 258 265 272 272 259 257 221 229 234 226
132 127 129 137 130 120 129 101 95 86 62 90 94 91 85 90 85 82 78 74 71 69 68 68 66 70 78 82 97 102 105 104 85 74 63 49 47 42 37 38 32 30 36 30 28 25 25 20 19 15 15 7 6 356 355 353 352 349 338 328 319 310 305 307 306 303 296 298 287 286 288 287 282 278 258 253 252 238 263 265 249 255 249 230 222
143 135 139 137 126 125 134 108 102 97 87 78 73 73 73 77 85 79 73 77 77 76 75 73 67 68 79 85 84 89 80 71 71 56 43 34 31 37 39 39 43 31 34 32 29 26 29 25 23 18 13 5 359 360 2 354 349 343 332 324 323 319 313 305 301 289 283 276 269 269 274 271 278 286 283 248 245 256 254 254 250 246 252 267 227
144 138 146 135 130 122 121 110 101 111 98 92 86 84 77 74 76 78 72 70 73 72 71 66 67 73 76 76 76 71 69 65 58 53 40 38 35 32 23 29 31 31 30 26 26 19 25 26 24 24 19 9 8 356 3 355 348 340 339 334 328 323 323 317 309 302 301 287 276 267 268 279 275 267 263 251 252 258 252 261 258 242 253 243 256
138 127 126 130 136 133 122 102 105 96 90 93 92 85 78 78 77 81 73 67 67 71 71 70 74 74 72 74 73 69 65 64 62 57 44 41 34 27 20 21 18 20 26 19 21 14 19 24 24 23 13 7 1 356 356 0 355 343 340 337 334 332 332 325 322 321 318 306 303 296 281 276 273 271 269 271 260 248 256 268 262 244 253 257 240
122 103 107 127 136 131 123 124 117 105 99 97 93 89 84 79 85 86 78 69 71 70 70 70 67 70 70 73 72 71 69 66 66 60 53 51 46 40 33 25 22 26 22 22 11 14 21 29 21 24 18 9 4 358 356 357 355 348 348 347 342 346 341 334 323 321 317 316 308 296 289 286 285 284 279 272 267 256 249 245 256 241 231 255 244
124 126 118 111 119 95 99 112 102 106 107 100 96 93 94 94 91 89 84 73 71 70 71 72 71 67 67 69 74 74 71 69 64 58 53 51 50 49 44 31 28 23 25 23 19 22 22 23 26 24 18 12 8 5 358 356 355 346 345 340 335 340 337 333 330 327 320 313 310 306 304 291 280 271 255 258 259 262 263 262 261 267 247 232 243
137 134 132 134 126 121 116 109 105 109 108 105 102 105 105 101 95 83 83 79 76 75 74 77 77 76 73 73 71 69 69 69 66 61 59 54 51 48 45 39 33 29 30 26 26 16 20 20 22 20 12 8 5 3 0 357 350 343 343 343 338 345 333 329 328 328 324 322 315 309 302 299 297 291 286 278 265 257 261 263 259 258 271 275 242
139 139 129 121 114 107 115 115 110 111 113 111 108 109 108 102 97 93 87 83 81 80 83 80 82 79 76 74 70 70 67 64 62 60 56 52 50 45 42 38 34 29 26 22 22 23 24 20 23 18 16 12 9 7 2 358 351 347 345 340 340 339 331 327 327 329 326 327 323 318 314 305 298 296 284 274 272 268 267 258 249 257 258 258 262
140 125 116 108 100 105 113 111 104 114 113 106 103 101 99 99 100 99 93 91 89 87 84 84 83 81 77 73 70 67 67 64 57 52 48 47 43 45 43 41 35 31 32 29 27 27 27 28 24 22 18 18 14 11 5 2 357 354 350 347 347 342 336 332 332 330 328 326 320 320 315 309 311 307 295 285 281 276 272 265 258 249 243 256 255
124 122 123 121 122 121 121 111 106 104 103 104 104 102 101 96 93 92 92 90 91 89 88 83 79 76 72 71 69 68 63 63 61 59 55 53 47 44 46 42 39 36 34 34 33 32 32 32 30 25 21 18 16 12 6 2 359 355 352 348 348 346 343 340 338 337 332 330 327 323 322 316 313 311 307 298 287 281 270 263 263 256 253 251 250
133 134 132 127 122 118 116 118 117 117 113 109 107 105 101 99 96 95 94 92 90 86 83 76 71 73 74 73 69 67 65 65 63 61 59 54 49 43 41 43 41 40 40 40 41 39 36 35 31 27 23 20 16 11 6 360 357 355 350 347 344 342 341 340 338 338 335 331 329 327 325 318 316 311 305 304 302 289 280 282 273 267 265 256 256
140 138 134 131 126 125 120 117 114 110 109 111 111 108 104 100 98 97 94 90 85 82 76 73 76 74 74 72 70 69 69 67 64 61 60 54 49 43 39 39 40 42 41 42 42 41 38 35 32 28 24 19 14 10 5 358 357 352 348 343 342 343 340 339 334 331 334 333 332 328 326 325 322 314 309 309 308 307 296 285 281 276 269 260 258
135 126 126 122 116 120 120 118 116 115 117 117 114 106 101 97 97 98 93 86 85 77 77 80 78 77 76 75 72 69 68 64 65 58 55 52 47 42 36 36 42 40 42 42 43 40 38 35 33 29 24 20 16 11 5 0 355 351 346 346 341 340 339 336 335 335 336 335 326 324 324 326 326 321 315 309 306 305 305 300 289 271 270 269 247
136 136 132 124 125 128 128 125 121 120 121 118 110 105 102 98 95 94 93 87 83 83 82 83 81 78 77 75 72 67 64 63 61 56 51 49 46 44 38 38 40 40 44 45 42 41 39 37 35 30 24 21 16 11 7 0 355 350 345 344 341 340 338 337 336 334 334 331 328 325 322 324 326 322 321 314 312 309 310 309 304 289 277 272 264
128 121 122 124 127 125 122 122 122 123 124 116 112 109 102 99 99 98 95 94 89 87 85 82 81 77 75 72 69 66 62 60 59 55 52 49 47 45 40 41 41 41 45 46 44 40 40 37 35 30 25 21 18 15 10 7 359 351 346 341 339 340 339 340 339 336 333 334 333 330 326 325 322 319 319 320 319 323 321 318 314 309 293 277 261
139 138 134 129 124 124 125 126 126 129 125 118 110 104 102 101 104 103 97 94 91 88 86 82 80 78 73 71 67 64 62 60 59 56 52 50 47 46 42 40 41 44 44 44 45 42 40 38 34 29 26 23 19 15 10 7 2 355 347 344 342 343 340 338 340 341 341 337 335 334 332 336 334 331 328 329 330 327 323 315 313 314 311 297 273
146 142 139 135 129 119 120 123 128 133 126 115 106 103 101 102 104 103 99 96 90 89 86 83 78 77 73 70 67 64 61 59 56 55 51 49 46 44 43 42 40 43 46 47 46 45 41 39 37 32 28 24 20 15 9 3 359 355 353 351 349 346 346 344 343 342 342 339 337 335 335 337 336 334 330 329 328 325 322 317 316 311 307 305 299
147 144 136 130 125 124 122 125 128 130 114 106 107 105 104 106 103 96 95 93 92 91 88 83 78 76 74 69 66 64 62 59 57 54 54 50 48 45 45 43 41 42 45 45 45 47 43 40 36 31 29 24 20 15 9 2 359 358 355 356 356 354 352 351 347 345 344 343 339 338 336 338 336 336 332 331 326 323 322 315 309 306 301 307 303
128 133 135 129 123 121 122 128 130 125 110 102 102 105 107 109 106 100 97 93 89 89 86 82 79 77 75 72 69 67 63 62 59 59 56 54 51 50 47 45 43 43 42 43 46 45 45 41 39 38 33 28 22 19 13 4 359 358 354 357 358 357 356 353 349 349 349 346 344 340 338 339 339 337 335 327 325 322 320 313 310 307 307 306 302
141 144 135 130 131 132 132 133 134 120 110 107 105 103 104 103 99 98 95 93 93 90 86 83 80 77 74 76 75 67 65 63 62 61 58 55 54 51 49 47 45 45 41 42 46 45 43 42 39 38 34 27 23 17 13 5 358 355 354 356 357 358 358 355 352 351 351 350 348 345 340 338 336 334 329 322 317 314 311 312 307 307 303 299 294
150 150 144 132 129 133 136 138 134 120 115 114 112 113 111 108 105 101 98 96 94 88 88 84 80 79 79 80 77 73 69 66 64 62 60 59 57 54 51 50 47 44 42 39 43 43 42 40 37 33 31 30 25 19 2 359 2 358 352 356 358 360 0 358 355 351 349 349 349 345 340 340 337 336 332 328 323 316 312 301 293 296 295 293 287
148 147 139 128 127 133 135 130 125 121 117 114 115 114 110 107 106 103 99 99 97 93 86 85 82 81 83 81 77 73 71 69 67 66 64 61 58 55 53 51 48 44 41 39 39 41 40 33 33 32 31 30 25 10 358 359 357 357 356 356 2 359 360 359 358 355 349 348 346 345 343 341 341 341 337 333 325 320 314 308 299 285 270 268 279
146 142 136 135 134 130 125 127 129 125 121 121 121 116 111 108 105 102 99 96 92 90 90 86 86 86 84 82 80 78 75 72 71 68 66 62 59 57 55 51 48 44 42 41 41 37 37 34 32 35 35 29 25 8 358 359 358 354 356 353 9 1 0 0 358 355 352 351 348 345 344 344 343 341 339 336 331 323 316 308 302 295 286 266 241
141 137 140 139 134 130 130 132 135 127 120 117 118 114 110 110 106 104 100 94 91 91 91 87 84 85 83 81 81 81 80 77 73 71 66 64 60 58 54 50 47 42 43 43 38 35 34 34 33 35 34 30 22 8 358 360 359 354 349 343 18 2 2 4 359 357 354 353 351 347 345 346 344 343 342 339 333 326 320 314 308 304 295 283 270
132 136 137 131 125 126 125 125 117 109 106 101 96 99 102 103 103 102 96 93 94 89 89 87 84 82 84 83 85 85 83 79 77 73 70 65 63 59 55 51 48 44 43 42 38 35 33 38 36 33 34 31 23 6 1 1 1 354 346 339 22 6 5 5 1 359 356 356 355 352 348 346 345 342 343 342 335 330 323 318 320 323 319 309 292
140 142 140 131 128 125 119 116 118 118 117 111 104 105 103 96 95 95 97 100 95 94 88 88 86 86 85 86 88 87 84 82 78 74 70 65 61 59 55 51 49 45 44 41 35 32 32 37 34 34 34 31 24 7 4 1 1 356 341 359 19 13 9 5 1 358 358 358 356 356 352 348 345 343 346 341 336 333 325 322 325 325 323 313 302
154 147 140 135 132 131 126 121 122 121 113 110 112 113 106 102 102 102 101 99 101 96 94 92 90 87 87 87 89 88 86 83 78 74 71 66 62 56 53 49 53 53 50 46 43 35 35 37 34 33 33 31 27 15 4 4 1 359 345 18 17 14 11 7 4 0 359 0 359 359 356 351 346 345 344 339 338 336 328 331 330 332 336 337 332
133 129 125 123 125 124 122 120 119 116 115 117 121 117 112 109 101 100 102 101 97 96 97 95 91 89 87 87 88 87 83 80 77 76 70 64 61 56 51 45 56 52 48 45 42 38 39 42 36 36 33 29 30 19 8 5 4 1 0 20 16 14 12 9 7 5 2 1 0 359 2 355 348 348 344 342 344 343 338 341 339 340 346 350 355
117 117 119 122 123 121 124 125 120 114 115 116 111 109 111 110 111 108 105 104 103 102 101 95 92 90 88 87 85 84 83 78 76 74 70 67 64 61 57 43 54 54 51 42 41 45 43 45 41 33 23 28 25 23 13 8 6 5 356 16 15 13 12 10 8 9 5 2 360 2 4 360 352 349 345 348 350 351 349 349 347 350 356 4 358
139 140 136 133 129 126 124 119 114 112 115 115 116 118 116 116 118 115 111 109 107 106 102 98 96 93 90 87 83 82 80 79 76 69 66 68 62 60 56 55 57 59 53 50 44 47 46 42 34 29 17 20 22 24 17 9 8 8 5 17 15 14 12 12 9 7 6 4 3 5 4 1 355 348 348 354 354 356 354 358 354 354 360 8 3
123 118 122 125 127 123 121 121 122 126 128 126 129 127 122 119 118 117 113 110 106 103 102 101 100 94 90 87 82 79 75 75 76 73 69 66 67 65 57 59 58 57 57 52 50 48 47 42 32 30 30 26 20 25 20 10 11 11 7 6 23 17 14 13 12 11 7 8 8 7 6 1 352 351 355 357 359 359 359 0 359 359 356 359 344
133 129 130 128 131 132 133 132 130 135 138 141 136 126 122 122 123 120 116 114 113 110 106 103 100 96 91 86 81 78 77 73 74 77 75 68 62 62 60 60 62 60 59 54 48 49 51 47 40 34 30 29 21 15 18 14 12 13 13 11 29 20 13 15 16 15 14 12 10 10 9 360 353 356 358 360 2 0 2 5 3 357 353 346 355
131 137 135 128 130 130 129 130 138 142 143 140 133 125 126 129 127 124 124 124 121 116 111 106 99 94 91 87 83 79 75 76 72 75 78 73 66 63 60 61 66 65 63 57 49 51 51 49 46 39 32 24 21 25 13 15 12 12 15 16 19 21 357 17 19 22 18 19 15 12 12 356 354 359 1 3 3 2 5 9 0 359 359 2 10
129 131 133 133 132 135 135 137 142 144 143 138 133 130 133 135 132 133 134 128 123 118 112 106 101 98 92 87 82 79 76 76 73 71 77 76 70 68 63 59 63 67 64 59 51 48 49 47 46 41 35 27 16 23 18 13 11 9 12 13 15 16 357 21 30 30 25 20 19 14 8 356 359 1 3 4 5 4 9 6 3 3 3 4 10
139 141 143 137 133 134 135 138 140 141 139 139 138 137 140 138 134 137 130 127 122 118 114 110 106 104 98 93 90 82 76 70 72 76 76 74 68 69 63 56 51 56 60 57 50 48 48 47 42 40 36 30 22 19 20 12 5 5 10 11 11 11 12 8 18 26 14 11 7 4 355 352 3 5 7 8 10 9 6 4 7 5 4 7 12
144 147 144 142 139 136 134 136 139 142 141 144 146 142 141 136 138 140 137 133 128 126 123 120 119 114 107 105 91 85 78 72 63 61 74 74 68 65 67 54 58 55 54 55 52 47 46 44 42 38 36 32 26 24 21 12 1 359 8 10 9 12 9 2 17 21 13 11 356 350 355 357 5 8 11 13 15 10 5 5 8 10 9 11 9
139 141 141 137 132 132 136 140 146 146 144 147 149 146 142 141 144 142 138 135 135 134 130 128 124 120 119 122 114 104 90 76 70 62 67 62 57 60 63 58 59 56 54 55 49 47 43 40 40 37 35 33 30 30 22 14 7 7 10 7 6 12 6 1 11 12 355 359 1 357 2 1 10 9 13 19 17 10 6 9 9 12 14 11 10
148 145 137 134 136 140 144 145 145 148 146 149 147 147 138 139 144 142 140 140 141 139 135 133 130 126 125 124 124 117 115 104 91 88 75 67 55 57 61 57 53 52 54 51 49 44 40 35 35 30 32 31 33 30 22 14 13 8 12 12 13 11 6 9 17 11 10 12 9 6 2 1 12 6 10 13 19 17 15 14 14 11 13 13 12
142 138 138 137 141 143 145 146 146 150 147 149 152 143 141 143 144 143 145 144 143 146 146 143 139 136 131 132 118 96 120 110 96 84 92 89 71 55 60 51 45 40 44 50 47 42 35 28 28 24 28 34 32 33 22 11 12 9 8 12 13 9 9 14 10 1 359 10 15 11 13 17 15 16 15 17 16 16 17 15 14 13 12 12 13
141 144 146 147 145 145 147 146 146 148 149 150 148 142 146 146 145 148 151 154 148 144 141 141 144 146 136 130 126 118 101 101 110 103 81 47 52 56 65 73 62 33 32 34 39 43 30 24 31 22 21 32 32 29 13 345 9 15 16 11 14 12 2 8 354 332 337 19 21 21 20 15 18 16 15 14 14 13 13 14 14 13 13 14 15
144 143 145 142 145 145 147 146 144 148 150 149 146 147 149 150 147 153 159 154 148 147 148 150 156 156 148 156 144 130 120 115 108 106 106 102 78 25 345 25 78 115 214 278 288 12 5 0 29 48 33 23 25 2 336 359 10 11 11 14 12 11 3 351 342 324 354 26 25 25 20 16 13 18 11 11 7 10 8 7 7 12 16 18 18
145 144 143 140 143 146 145 143 146 150 150 148 148 149 149 149 153 157 165 159 156 160 161 156 162 166 155 155 150 144 140 121 109 104 101 99 105 114 128 227 296 310 305 256 237 259 276 290 343 29 84 119 29 7 5 5 10 12 11 8 10 8 4 352 348 340 32 27 26 28 22 18 15 16 11 7 4 7 4 4 4 5 6 8 11